Location: Leipzig
(51.3392°N, 12.3528°E)
Time: 03:58:04
(UTC+01:00)

ISS - Pass Details

Date: 17 November 2017
Orbit: 401 x 407 km, 51.6° (Epoch: 18 November)

Event Time Altitude Azimuth Distance (km) Brightness Sun altitude
Exits shadow 04:48:30 11° 153° (SSE) 1,365 -0.9 -25.1°
Drops below altitude 10° 04:48:44 10° 151° (SSE) 1,450 -0.7 -25.1°
Sets 04:50:58 0° 139° (SE) 2,306 0.6 -24.7°
